Wind_Speed
53 54 56 57 59 59 60 60 60 61 59 57 56 55 57 58 58 58 56 57 56 54 54 49 46 46 46 45 45 45 46 47 48 50 51 53 53 53
51 51 53 54 53 53 53 54 55 56 56 55 54 53 52 54 56 57 57 56 56 54 53 50 47 45 44 45 46 46 48 49 51 52 53 54 55 57
47 48 49 48 47 48 47 47 48 47 47 47 48 47 48 48 51 53 54 54 54 55 55 54 52 51 50 49 50 51 52 53 54 55 56 56 57 58
45 44 43 42 42 42 42 41 40 41 42 42 44 44 44 45 46 48 50 51 52 55 55 55 55 54 54 54 54 54 55 56 57 57 57 57 58 60
41 40 38 37 37 37 37 36 35 35 35 35 37 39 40 42 43 44 46 48 50 53 54 54 55 55 55 55 55 56 56 56 57 57 57 58 59 60
37 36 34 33 33 33 32 31 30 30 32 32 33 34 36 39 41 43 45 47 49 51 52 53 54 54 54 54 54 55 56 56 57 57 58 59 60 62
33 32 31 30 30 29 29 27 26 26 26 27 29 30 32 34 37 39 42 44 46 48 49 51 52 53 54 54 55 55 56 57 58 58 59 60 61 63
30 29 28 27 27 26 25 25 24 23 23 24 25 27 29 33 35 38 40 42 44 46 48 49 51 52 54 55 56 57 58 58 59 59 60 60 61 63
26 26 25 25 24 24 24 23 23 23 23 24 24 26 28 31 34 36 38 41 43 45 47 49 51 53 55 56 57 58 58 59 59 59 59 59 59 60
25 24 24 24 24 24 24 25 24 25 25 26 27 28 30 32 34 37 39 42 44 47 49 51 53 55 57 58 59 59 59 59 58 58 57 56 56 56
25 25 25 25 25 26 26 26 26 27 28 29 30 32 34 35 37 40 42 45 47 50 51 53 55 57 58 59 59 58 57 56 55 54 53 53 52 51
26 26 26 27 27 27 28 29 30 31 32 33 35 36 38 39 41 43 46 48 50 52 53 54 56 57 57 57 56 55 54 52 51 50 48 48 47 46
27 28 28 29 29 30 31 32 33 34 35 37 38 40 41 43 45 47 48 50 52 53 54 54 54 54 53 51 51 50 49 48 47 45 44 44 43 43
29 30 31 31 32 33 34 35 36 37 39 40 41 43 44 46 47 49 50 52 53 53 53 53 52 51 49 47 46 47 46 45 45 44 43 42 42 42
31 32 33 34 34 35 36 37 38 40 41 42 44 45 47 48 49 51 51 52 52 53 52 51 50 49 47 45 44 44 45 45 45 44 43 42 42 43
33 34 35 35 36 37 38 39 41 42 44 45 47 48 49 49 50 51 51 52 52 53 52 51 49 47 46 45 43 43 44 44 44 45 44 43 43 44
34 35 36 37 38 39 40 41 43 44 46 48 49 50 50 51 51 52 52 51 51 51 51 51 49 47 45 44 43 43 44 44 45 45 45 43 43 44
35 36 37 38 40 41 42 44 45 47 49 50 51 51 51 52 53 53 51 51 50 50 50 50 49 48 46 44 44 44 44 45 45 45 45 43 41 43
36 38 39 40 41 43 44 46 48 50 51 52 53 53 53 53 53 52 51 50 49 49 49 49 48 47 46 43 42 44 45 45 45 44 44 43 41 40
38 39 40 42 43 45 47 49 51 52 53 54 54 54 54 53 52 51 50 49 48 48 47 47 48 47 45 43 41 41 45 45 45 44 44 43 41 40
39 41 42 43 45 47 49 51 52 53 54 54 54 54 53 52 51 50 49 48 47 46 44 45 46 46 45 43 40 39 42 44 44 43 42 42 40 39
41 42 43 45 46 48 50 52 53 54 54 54 54 53 52 51 50 49 48 46 45 44 42 42 43 43 43 42 40 38 38 40 42 42 41 40 39 37
42 43 44 46 48 50 52 53 54 54 54 54 53 53 51 50 49 48 46 45 43 41 40 39 39 40 40 40 39 36 36 37 39 39 39 41 39 37
Wind_Direction
291 291 290 290 287 285 283 280 279 276 273 270 267 264 262 261 260 259 259 261 263 267 269 270 271 269 269 269 267 268 269 268 268 269 269 269 268 268
295 295 294 293 290 288 287 283 280 277 274 269 267 264 261 260 259 259 260 261 264 266 270 271 272 274 274 274 275 274 274 272 272 271 271 271 270 269
298 299 298 296 294 292 290 287 281 278 275 270 266 265 262 260 259 260 259 261 264 267 270 273 275 277 278 278 277 277 276 275 273 273 272 272 272 270
303 302 301 301 299 297 294 292 286 281 279 274 270 268 266 263 262 262 263 263 266 268 271 274 276 278 279 279 278 278 278 276 275 275 274 273 272 271
306 305 305 306 304 303 301 297 293 286 281 277 274 272 270 268 266 265 266 267 268 271 273 275 276 277 278 279 278 278 278 277 276 275 275 274 273 272
307 306 307 308 308 307 305 302 298 291 285 282 279 274 271 270 269 269 271 271 271 273 275 276 278 278 279 279 279 279 278 278 277 277 276 275 274 273
307 307 308 309 310 309 308 307 304 299 293 287 281 277 274 274 274 274 274 274 275 276 276 278 279 280 280 280 281 281 280 280 279 279 278 277 276 275
308 309 310 311 312 313 313 311 307 305 302 297 290 283 280 278 278 277 277 277 278 279 280 281 281 282 282 283 282 282 282 282 281 281 280 279 277 276
309 310 312 312 312 314 314 313 310 308 305 300 296 292 287 284 283 283 282 282 283 283 283 284 284 284 285 285 285 285 285 285 284 283 281 280 279 277
308 309 311 313 313 312 312 311 308 306 304 302 299 296 293 291 289 288 287 286 286 286 286 287 287 287 288 287 287 287 286 285 284 283 281 280 278 277
308 309 310 311 311 310 309 309 307 305 304 302 300 297 295 293 291 290 289 289 289 288 288 289 289 289 289 288 288 287 286 285 284 282 281 279 278 276
308 308 308 309 308 308 307 307 306 305 304 302 300 298 296 294 293 292 292 292 292 291 291 291 291 291 290 289 288 286 285 284 283 282 280 279 278 277
308 308 308 309 308 307 307 306 306 305 304 303 301 300 299 297 296 295 295 295 294 294 294 294 293 292 291 289 288 287 286 285 284 282 281 280 279 279
308 308 308 308 308 308 307 307 307 306 305 304 303 302 301 300 299 298 298 297 296 295 295 295 294 292 291 289 287 286 285 284 283 282 282 282 282 281
307 308 308 308 308 308 308 307 307 307 306 305 304 304 303 302 301 301 300 299 297 296 296 295 293 291 289 287 285 283 283 283 283 281 281 283 283 283
307 308 308 308 309 308 308 308 308 308 308 307 306 306 305 304 303 302 301 299 298 297 296 294 292 290 288 285 283 280 279 279 279 280 280 281 282 283
308 309 309 309 310 310 309 309 310 310 310 309 309 308 307 305 305 303 302 300 299 297 296 294 292 289 287 285 282 280 278 277 276 276 277 278 280 281
308 309 310 310 310 311 311 311 311 312 312 311 310 309 308 307 306 304 302 300 299 297 295 293 291 289 288 285 283 281 278 276 275 275 275 275 276 278
308 309 310 310 311 312 312 313 313 314 313 313 312 310 309 308 307 305 303 301 300 297 295 293 291 290 288 286 284 282 279 277 276 276 275 275 275 274
308 309 310 310 311 312 313 314 314 314 314 314 313 312 311 309 308 306 304 303 301 299 296 294 292 291 290 287 284 281 280 278 277 275 275 275 274 273
307 308 310 310 312 313 314 315 315 315 315 315 315 313 312 311 309 307 306 304 303 300 298 295 294 293 291 290 287 282 279 279 278 276 274 273 272 272
307 308 310 311 312 313 314 315 316 316 316 316 316 315 314 312 310 309 307 305 304 302 300 298 296 295 294 292 290 285 280 278 278 278 276 274 271 269
307 308 310 311 312 314 315 316 316 317 317 317 316 316 315 313 311 310 308 306 305 304 302 301 299 298 297 295 293 289 284 279 276 276 277 277 275 272
Height
5702 5696 5691 5685 5679 5673 5668 5664 5660 5658 5659 5660 5659 5659 5661 5662 5664 5666 5668 5669 5670 5670 5670 5669 5670 5671 5671 5672 5672 5673 5674 5675 5676 5677 5678 5679 5680 5680
5689 5682 5676 5669 5663 5658 5652 5648 5644 5641 5640 5642 5642 5643 5643 5645 5648 5650 5652 5654 5655 5655 5655 5656 5656 5657 5657 5658 5659 5659 5660 5661 5661 5662 5662 5663 5663 5664
5676 5669 5662 5655 5649 5644 5639 5634 5630 5626 5625 5626 5626 5627 5628 5631 5633 5635 5638 5640 5641 5642 5642 5642 5643 5643 5644 5644 5644 5644 5644 5645 5645 5645 5645 5645 5646 5646
5664 5657 5650 5644 5638 5633 5628 5623 5619 5616 5614 5613 5614 5615 5616 5618 5620 5623 5625 5626 5628 5629 5629 5629 5629 5629 5629 5629 5629 5628 5628 5628 5628 5627 5627 5627 5627 5626
5654 5647 5641 5635 5629 5624 5619 5614 5610 5607 5605 5604 5604 5605 5606 5608 5609 5612 5613 5615 5616 5616 5616 5616 5615 5614 5613 5613 5612 5611 5611 5610 5609 5608 5608 5607 5607 5606
5645 5639 5633 5627 5622 5617 5612 5607 5603 5600 5598 5597 5596 5597 5598 5599 5600 5601 5602 5603 5603 5603 5602 5601 5600 5599 5597 5596 5595 5594 5593 5592 5590 5589 5588 5587 5587 5586
5637 5632 5626 5621 5616 5611 5606 5602 5598 5595 5593 5591 5590 5590 5590 5591 5591 5591 5591 5591 5590 5590 5588 5587 5585 5584 5582 5580 5578 5577 5575 5573 5572 5570 5568 5567 5565 5564
5631 5626 5620 5616 5611 5606 5602 5598 5594 5591 5588 5586 5585 5584 5583 5583 5583 5582 5581 5580 5579 5578 5575 5573 5571 5568 5565 5564 5561 5559 5556 5554 5552 5550 5547 5545 5543 5541
5625 5620 5615 5611 5606 5602 5598 5594 5590 5587 5585 5582 5580 5578 5577 5576 5574 5573 5571 5569 5567 5564 5562 5558 5555 5552 5549 5546 5543 5540 5537 5534 5532 5529 5526 5524 5521 5519
5619 5615 5610 5606 5602 5597 5594 5590 5586 5583 5580 5577 5575 5572 5570 5568 5565 5563 5560 5557 5554 5551 5547 5544 5539 5536 5531 5527 5524 5521 5517 5515 5511 5508 5506 5503 5501 5498
5614 5609 5605 5601 5597 5593 5589 5585 5582 5578 5574 5571 5568 5565 5561 5558 5555 5552 5548 5545 5541 5537 5533 5528 5522 5518 5513 5509 5505 5501 5498 5495 5492 5489 5487 5484 5482 5480
5608 5604 5600 5595 5591 5587 5583 5579 5575 5571 5567 5563 5560 5556 5552 5548 5544 5540 5535 5531 5526 5521 5516 5511 5505 5500 5495 5490 5486 5482 5479 5477 5474 5472 5469 5467 5465 5464
5601 5597 5593 5589 5585 5580 5576 5572 5568 5563 5559 5554 5550 5545 5541 5536 5531 5526 5521 5516 5510 5504 5500 5495 5488 5483 5478 5473 5468 5464 5462 5459 5457 5455 5453 5452 5450 5449
5595 5590 5586 5582 5577 5573 5568 5564 5559 5554 5549 5544 5539 5534 5529 5523 5518 5512 5506 5500 5493 5488 5482 5478 5473 5467 5463 5458 5453 5449 5446 5444 5441 5440 5438 5437 5435 5433
5587 5583 5578 5574 5569 5564 5559 5554 5549 5544 5538 5533 5527 5522 5516 5509 5503 5497 5490 5484 5477 5471 5466 5461 5457 5452 5448 5444 5441 5436 5432 5429 5426 5425 5424 5423 5421 5419
5579 5575 5570 5565 5560 5555 5550 5544 5539 5533 5527 5521 5515 5508 5502 5495 5488 5482 5475 5468 5462 5455 5449 5445 5440 5437 5433 5430 5427 5423 5419 5416 5414 5410 5410 5409 5407 5404
5571 5566 5561 5556 5551 5545 5540 5534 5528 5521 5515 5508 5501 5494 5487 5480 5473 5466 5459 5452 5446 5439 5432 5428 5424 5421 5418 5415 5412 5408 5405 5402 5400 5397 5396 5396 5394 5391
5562 5557 5552 5546 5541 5535 5529 5523 5516 5509 5502 5495 5487 5480 5472 5465 5457 5450 5443 5437 5430 5424 5417 5411 5407 5404 5402 5399 5396 5393 5390 5387 5384 5383 5381 5382 5382 5378
5553 5548 5542 5537 5531 5524 5518 5511 5504 5496 5489 5481 5473 5465 5457 5449 5441 5434 5427 5421 5415 5409 5402 5396 5391 5388 5386 5385 5382 5376 5373 5371 5369 5368 5366 5366 5367 5365
5544 5538 5533 5526 5520 5513 5506 5499 5491 5483 5475 5467 5458 5450 5442 5434 5426 5419 5412 5405 5399 5393 5387 5381 5376 5372 5369 5368 5367 5364 5357 5354 5354 5353 5352 5351 5351 5351
5534 5529 5522 5516 5509 5502 5495 5487 5479 5471 5462 5453 5444 5436 5427 5419 5411 5404 5397 5390 5384 5379 5373 5367 5361 5357 5353 5351 5351 5350 5345 5339 5337 5337 5337 5336 5336 5337
5524 5518 5512 5505 5499 5491 5483 5475 5466 5458 5449 5440 5431 5422 5413 5405 5398 5390 5383 5376 5370 5364 5359 5354 5348 5343 5338 5335 5334 5333 5331 5327 5323 5321 5321 5321 5320 5323
5514 5508 5501 5494 5487 5480 5471 5463 5454 5445 5436 5427 5418 5409 5400 5392 5384 5377 5370 5363 5357 5351 5346 5342 5337 5331 5326 5322 5319 5318 5316 5313 5310 5309 5309 5306 5305 5307